Location: Bílinka
(49.3579°N, 14.3767°E)
Time: 21:27:17
(UTC+00:00)

PSLV R/B - Pass Details

Date: 26 March 2025
Orbit: 410 x 442 km, 97.7° (Epoch: 28 April)

Event Time Altitude Azimuth Distance (km) Brightness Sun altitude
Exits shadow 19:58:50 30° 2° (N) 827 5.0 -24.1°
Drops below altitude 10° 20:00:41 10° 352° (N) 1,569 6.7 -24.3°
Sets 20:02:43 0° 350° (N) 2,435 7.8 -24.6°
